Time,TemperatureF,DewpointF,PressureIn,WindDirection,WindDirectionDegrees,WindSpeedMPH,WindSpeedGustMPH,Humidity,HourlyPrecipIn,Conditions,Clouds,dailyrainin,SolarRadiationWatts/m^2,SoftwareType,DateUTC
2013-02-03 00:01:00,55.0,55.0,-100.00,South,169,2.0,7.0,99,0.00,,,0.00,0.000000,,2013-02-03 10:01:00,
2013-02-03 00:11:00,55.0,55.0,-100.00,South,169,2.0,7.0,99,0.00,,,0.00,0.000000,,2013-02-03 10:11:00,
2013-02-03 00:21:00,55.0,55.0,-100.00,South,169,2.0,7.0,99,0.00,,,0.00,0.000000,,2013-02-03 10:21:00,
2013-02-03 00:31:00,55.0,55.0,-100.00,South,169,2.0,7.0,99,0.00,,,0.00,0.000000,,2013-02-03 10:31:00,
2013-02-03 00:52:00,53.0,53.0,-100.00,SSE,158,3.0,7.0,99,0.00,,,0.00,0.000000,,2013-02-03 10:52:00,
2013-02-03 01:02:00,53.0,53.0,-100.00,SSE,158,3.0,7.0,99,0.00,,,0.00,0.000000,,2013-02-03 11:02:00,
2013-02-03 01:11:00,53.0,53.0,-100.00,SSE,158,3.0,7.0,99,0.00,,,0.00,0.000000,,2013-02-03 11:11:00,
2013-02-03 01:22:00,53.0,53.0,-100.00,SSE,158,3.0,7.0,99,0.00,,,0.00,0.000000,,2013-02-03 11:22:00,
2013-02-03 01:31:00,53.0,53.0,-100.00,SSE,158,3.0,7.0,99,0.00,,,0.00,0.000000,,2013-02-03 11:31:00,
2013-02-03 01:52:00,54.0,54.0,-100.00,South,180,5.0,8.0,99,0.00,,,0.00,0.000000,,2013-02-03 11:52:00,
2013-02-03 02:02:00,54.0,54.0,-100.00,South,180,5.0,8.0,99,0.00,,,0.00,0.000000,,2013-02-03 12:02:00,
2013-02-03 02:11:00,54.0,54.0,-100.00,South,180,5.0,8.0,99,0.00,,,0.00,0.000000,,2013-02-03 12:11:00,
2013-02-03 02:22:00,54.0,54.0,-100.00,South,180,5.0,8.0,99,0.00,,,0.00,0.000000,,2013-02-03 12:22:00,
2013-02-03 02:32:00,54.0,54.0,-100.00,South,180,5.0,8.0,99,0.00,,,0.00,0.000000,,2013-02-03 12:32:00,
2013-02-03 03:03:00,52.0,48.0,-100.00,SSE,148,6.0,8.0,85,0.00,,,0.00,0.000000,,2013-02-03 13:03:00,
2013-02-03 03:11:00,52.0,48.0,-100.00,SSE,148,6.0,8.0,85,0.00,,,0.00,0.000000,,2013-02-03 13:11:00,
2013-02-03 03:21:00,52.0,48.0,-100.00,SSE,148,6.0,8.0,85,0.00,,,0.00,0.000000,,2013-02-03 13:21:00,
2013-02-03 03:32:00,52.0,48.0,-100.00,SSE,148,6.0,8.0,85,0.00,,,0.00,0.000000,,2013-02-03 13:32:00,
2013-02-03 04:02:00,52.0,48.0,-100.00,SE,143,6.0,8.0,87,0.00,,,0.00,0.000000,,2013-02-03 14:02:00,
2013-02-03 04:11:00,52.0,48.0,-100.00,SE,143,6.0,8.0,87,0.00,,,0.00,0.000000,,2013-02-03 14:11:00,
2013-02-03 04:21:00,52.0,48.0,-100.00,SE,143,6.0,8.0,87,0.00,,,0.00,0.000000,,2013-02-03 14:21:00,
2013-02-03 04:31:00,52.0,48.0,-100.00,SE,143,6.0,8.0,87,0.00,,,0.00,0.000000,,2013-02-03 14:31:00,
2013-02-03 05:03:00,52.0,39.0,-100.00,SSE,152,4.0,8.0,61,0.00,,,0.00,0.000000,,2013-02-03 15:03:00,
2013-02-03 05:11:00,52.0,39.0,-100.00,SSE,152,4.0,8.0,61,0.00,,,0.00,0.000000,,2013-02-03 15:11:00,
2013-02-03 05:21:00,52.0,39.0,-100.00,SSE,152,4.0,8.0,61,0.00,,,0.00,0.000000,,2013-02-03 15:21:00,
2013-02-03 05:32:00,52.0,39.0,-100.00,SSE,152,4.0,8.0,61,0.00,,,0.00,0.000000,,2013-02-03 15:32:00,
2013-02-03 06:02:00,52.0,28.0,-100.00,South,172,2.0,10.0,40,0.00,,,0.00,0.000000,,2013-02-03 16:02:00,
2013-02-03 06:11:00,52.0,28.0,-100.00,South,172,2.0,10.0,40,0.00,,,0.00,0.000000,,2013-02-03 16:11:00,
2013-02-03 06:21:00,52.0,28.0,-100.00,South,172,2.0,10.0,40,0.00,,,0.00,0.000000,,2013-02-03 16:21:00,
2013-02-03 06:32:00,52.0,28.0,-100.00,South,172,2.0,10.0,40,0.00,,,0.00,0.000000,,2013-02-03 16:32:00,
2013-02-03 07:02:00,49.0,41.0,-100.00,SSE,158,4.0,9.0,73,0.00,,,0.00,0.000000,,2013-02-03 17:02:00,
2013-02-03 07:11:00,49.0,41.0,-100.00,SSE,158,4.0,9.0,73,0.00,,,0.00,0.000000,,2013-02-03 17:11:00,
2013-02-03 07:21:00,49.0,41.0,-100.00,SSE,158,4.0,9.0,73,0.00,,,0.00,0.000000,,2013-02-03 17:21:00,
2013-02-03 07:31:00,49.0,41.0,-100.00,SSE,158,4.0,9.0,73,0.00,,,0.00,0.000000,,2013-02-03 17:31:00,
2013-02-03 07:52:00,52.0,52.0,-100.00,SSE,159,5.0,8.0,99,0.00,,,0.00,30.000000,,2013-02-03 17:52:00,
2013-02-03 08:02:00,52.0,52.0,-100.00,SSE,159,5.0,8.0,99,0.00,,,0.00,30.000000,,2013-02-03 18:02:00,
2013-02-03 08:11:00,52.0,52.0,-100.00,SSE,159,5.0,8.0,99,0.00,,,0.00,30.000000,,2013-02-03 18:11:00,
2013-02-03 08:23:00,52.0,52.0,-100.00,SSE,159,5.0,8.0,99,0.00,,,0.00,30.000000,,2013-02-03 18:23:00,
2013-02-03 08:32:00,52.0,52.0,-100.00,SSE,159,5.0,8.0,99,0.00,,,0.00,30.000000,,2013-02-03 18:32:00,
2013-02-03 09:02:00,64.0,59.0,-100.00,NW,306,0.0,10.0,84,0.00,,,0.00,258.000000,,2013-02-03 19:02:00,
2013-02-03 09:11:00,64.0,59.0,-100.00,NW,306,0.0,10.0,84,0.00,,,0.00,258.000000,,2013-02-03 19:11:00,
2013-02-03 09:21:00,64.0,59.0,-100.00,NW,306,0.0,10.0,84,0.00,,,0.00,258.000000,,2013-02-03 19:21:00,
2013-02-03 09:31:00,64.0,59.0,-100.00,NW,306,0.0,10.0,84,0.00,,,0.00,258.000000,,2013-02-03 19:31:00,
2013-02-03 10:01:00,68.0,59.0,-100.00,North,6,4.0,6.0,72,0.00,,,0.00,523.000000,,2013-02-03 20:01:00,
2013-02-03 10:11:00,68.0,59.0,-100.00,North,6,4.0,6.0,72,0.00,,,0.00,523.000000,,2013-02-03 20:11:00,
2013-02-03 10:21:00,68.0,59.0,-100.00,North,6,4.0,6.0,72,0.00,,,0.00,523.000000,,2013-02-03 20:21:00,
2013-02-03 10:32:00,68.0,59.0,-100.00,North,6,4.0,6.0,72,0.00,,,0.00,523.000000,,2013-02-03 20:32:00,
2013-02-03 11:03:00,68.0,52.0,-100.00,NNE,14,11.0,15.0,57,0.00,,,-99.99,819.000000,,2013-02-03 21:03:00,
2013-02-03 11:11:00,68.0,52.0,-100.00,NNE,14,11.0,15.0,57,0.00,,,-99.99,819.000000,,2013-02-03 21:11:00,
2013-02-03 11:21:00,68.0,52.0,-100.00,NNE,14,11.0,15.0,57,0.00,,,-99.99,819.000000,,2013-02-03 21:21:00,
2013-02-03 11:32:00,68.0,52.0,-100.00,NNE,14,11.0,15.0,57,0.00,,,-99.99,819.000000,,2013-02-03 21:32:00,
2013-02-03 11:52:00,69.0,50.0,-100.00,NNE,25,11.0,23.0,51,0.00,,,0.00,996.000000,,2013-02-03 21:52:00,
2013-02-03 12:01:00,69.0,50.0,-100.00,NNE,25,11.0,23.0,51,0.00,,,0.00,996.000000,,2013-02-03 22:01:00,
2013-02-03 12:11:00,69.0,50.0,-100.00,NNE,25,11.0,23.0,51,0.00,,,0.00,996.000000,,2013-02-03 22:11:00,
2013-02-03 12:21:00,69.0,50.0,-100.00,NNE,25,11.0,23.0,51,0.00,,,0.00,996.000000,,2013-02-03 22:21:00,
2013-02-03 12:31:00,69.0,50.0,-100.00,NNE,25,11.0,23.0,51,0.00,,,0.00,996.000000,,2013-02-03 22:31:00,
2013-02-03 13:01:00,71.0,50.0,-100.00,North,4,10.0,22.0,47,0.00,,,0.00,1092.000000,,2013-02-03 23:01:00,
2013-02-03 13:11:00,71.0,50.0,-100.00,North,4,10.0,22.0,47,0.00,,,0.00,1092.000000,,2013-02-03 23:11:00,
2013-02-03 13:21:00,71.0,50.0,-100.00,North,4,10.0,22.0,47,0.00,,,0.00,1092.000000,,2013-02-03 23:21:00,
2013-02-03 13:32:00,71.0,50.0,-100.00,North,4,10.0,22.0,47,0.00,,,0.00,1092.000000,,2013-02-03 23:32:00,
2013-02-03 14:01:00,73.0,50.0,-100.00,North,356,12.0,27.0,44,0.00,,,0.00,1100.000000,,2013-02-04 00:01:00,
2013-02-03 14:11:00,73.0,50.0,-100.00,North,356,12.0,27.0,44,0.00,,,0.00,1100.000000,,2013-02-04 00:11:00,
2013-02-03 14:21:00,73.0,50.0,-100.00,North,356,12.0,27.0,44,0.00,,,0.00,1100.000000,,2013-02-04 00:21:00,
2013-02-03 14:31:00,73.0,50.0,-100.00,North,356,12.0,27.0,44,0.00,,,0.00,1100.000000,,2013-02-04 00:31:00,
2013-02-03 15:01:00,74.0,51.0,-100.00,NE,34,15.0,23.0,44,0.00,,,0.00,1020.000000,,2013-02-04 01:01:00,
2013-02-03 15:11:00,74.0,51.0,-100.00,NE,34,15.0,23.0,44,0.00,,,0.00,1020.000000,,2013-02-04 01:11:00,
2013-02-03 15:21:00,74.0,51.0,-100.00,NE,34,15.0,23.0,44,0.00,,,0.00,1020.000000,,2013-02-04 01:21:00,
2013-02-03 15:31:00,74.0,51.0,-100.00,NE,34,15.0,23.0,44,0.00,,,0.00,1020.000000,,2013-02-04 01:31:00,
2013-02-03 15:52:00,73.0,54.0,-100.00,NNW,343,9.0,26.0,51,0.00,,,0.00,824.000000,,2013-02-04 01:52:00,
2013-02-03 16:01:00,73.0,54.0,-100.00,NNW,343,9.0,26.0,51,0.00,,,0.00,824.000000,,2013-02-04 02:01:00,
2013-02-03 16:11:00,73.0,54.0,-100.00,NNW,343,9.0,26.0,51,0.00,,,0.00,824.000000,,2013-02-04 02:11:00,
2013-02-03 16:21:00,73.0,54.0,-100.00,NNW,343,9.0,26.0,51,0.00,,,0.00,824.000000,,2013-02-04 02:21:00,
2013-02-03 16:31:00,73.0,54.0,-100.00,NNW,343,9.0,26.0,51,0.00,,,0.00,824.000000,,2013-02-04 02:31:00,
2013-02-03 16:52:00,67.0,55.0,-100.00,NNE,23,10.0,17.0,65,0.00,,,0.00,338.000000,,2013-02-04 02:52:00,
2013-02-03 17:02:00,67.0,55.0,-100.00,NNE,23,10.0,17.0,65,0.00,,,0.00,338.000000,,2013-02-04 03:02:00,
2013-02-03 17:11:00,67.0,55.0,-100.00,NNE,23,10.0,17.0,65,0.00,,,0.00,338.000000,,2013-02-04 03:11:00,
2013-02-03 17:21:00,67.0,55.0,-100.00,NNE,23,10.0,17.0,65,0.00,,,0.00,338.000000,,2013-02-04 03:21:00,
2013-02-03 17:31:00,67.0,55.0,-100.00,NNE,23,10.0,17.0,65,0.00,,,0.00,338.000000,,2013-02-04 03:31:00,
2013-02-03 17:52:00,65.0,54.0,-100.00,NNE,28,14.0,18.0,67,0.00,,,0.00,286.000000,,2013-02-04 03:52:00,
2013-02-03 18:01:00,65.0,54.0,-100.00,NNE,28,14.0,18.0,67,0.00,,,0.00,286.000000,,2013-02-04 04:01:00,
2013-02-03 18:11:00,65.0,54.0,-100.00,NNE,28,14.0,18.0,67,0.00,,,0.00,286.000000,,2013-02-04 04:11:00,
2013-02-03 18:21:00,65.0,54.0,-100.00,NNE,28,14.0,18.0,67,0.00,,,0.00,286.000000,,2013-02-04 04:21:00,
2013-02-03 18:31:00,65.0,54.0,-100.00,NNE,28,14.0,18.0,67,0.00,,,0.00,286.000000,,2013-02-04 04:31:00,
2013-02-03 19:03:00,60.0,55.0,-100.00,NNE,23,15.0,25.0,84,0.00,,,0.00,44.000000,,2013-02-04 05:03:00,
2013-02-03 19:11:00,60.0,55.0,-100.00,NNE,23,15.0,25.0,84,0.00,,,0.00,44.000000,,2013-02-04 05:11:00,
2013-02-03 19:22:00,60.0,55.0,-100.00,NNE,23,15.0,25.0,84,0.00,,,0.00,44.000000,,2013-02-04 05:22:00,
2013-02-03 19:33:00,60.0,55.0,-100.00,NNE,23,15.0,25.0,84,0.00,,,0.00,44.000000,,2013-02-04 05:33:00,
2013-02-03 20:01:00,56.0,53.0,-100.00,ENE,62,5.0,22.0,89,0.00,,,0.00,0.000000,,2013-02-04 06:01:00,
2013-02-03 20:11:00,56.0,53.0,-100.00,ENE,62,5.0,22.0,89,0.00,,,0.00,0.000000,,2013-02-04 06:11:00,
2013-02-03 20:21:00,56.0,53.0,-100.00,ENE,62,5.0,22.0,89,0.00,,,0.00,0.000000,,2013-02-04 06:21:00,
2013-02-03 20:31:00,56.0,53.0,-100.00,ENE,62,5.0,22.0,89,0.00,,,0.00,0.000000,,2013-02-04 06:31:00,
2013-02-03 20:52:00,57.0,53.0,-100.00,ENE,65,11.0,25.0,88,0.00,,,0.00,0.000000,,2013-02-04 06:52:00,
2013-02-03 21:01:00,57.0,53.0,-100.00,ENE,65,11.0,25.0,88,0.00,,,0.00,0.000000,,2013-02-04 07:01:00,
2013-02-03 21:11:00,57.0,53.0,-100.00,ENE,65,11.0,25.0,88,0.00,,,0.00,0.000000,,2013-02-04 07:11:00,
2013-02-03 21:21:00,57.0,53.0,-100.00,ENE,65,11.0,25.0,88,0.00,,,0.00,0.000000,,2013-02-04 07:21:00,
2013-02-03 21:31:00,57.0,53.0,-100.00,ENE,65,11.0,25.0,88,0.00,,,0.00,0.000000,,2013-02-04 07:31:00,
2013-02-03 21:52:00,57.0,50.0,-100.00,NNE,30,11.0,22.0,77,0.00,,,0.00,0.000000,,2013-02-04 07:52:00,
2013-02-03 22:01:00,57.0,50.0,-100.00,NNE,30,11.0,22.0,77,0.00,,,0.00,0.000000,,2013-02-04 08:01:00,
2013-02-03 22:11:00,57.0,50.0,-100.00,NNE,30,11.0,22.0,77,0.00,,,0.00,0.000000,,2013-02-04 08:11:00,
2013-02-03 22:21:00,57.0,50.0,-100.00,NNE,30,11.0,22.0,77,0.00,,,0.00,0.000000,,2013-02-04 08:21:00,
2013-02-03 22:31:00,57.0,50.0,-100.00,NNE,30,11.0,22.0,77,0.00,,,0.00,0.000000,,2013-02-04 08:31:00,
2013-02-03 22:52:00,57.0,47.0,-100.00,East,84,13.0,22.0,70,0.00,,,0.00,0.000000,,2013-02-04 08:52:00,
2013-02-03 23:02:00,57.0,47.0,-100.00,East,84,13.0,22.0,70,0.00,,,0.00,0.000000,,2013-02-04 09:02:00,
2013-02-03 23:11:00,57.0,47.0,-100.00,East,84,13.0,22.0,70,0.00,,,0.00,0.000000,,2013-02-04 09:11:00,
2013-02-03 23:21:00,57.0,47.0,-100.00,East,84,13.0,22.0,70,0.00,,,0.00,0.000000,,2013-02-04 09:21:00,
2013-02-03 23:31:00,57.0,47.0,-100.00,East,84,13.0,22.0,70,0.00,,,0.00,0.000000,,2013-02-04 09:31:00,
2013-02-03 23:52:00,57.0,50.0,-100.00,SE,131,6.0,20.0,76,0.00,,,0.00,0.000000,,2013-02-04 09:52:00,